Location: Henham
(51.9333°N, 0.2500°E)
Time: 22:25:02
(UTC+00:00)

SPOT 3 Rocket - Pass Details

Date: 23 October 2019
Orbit: 780 x 794 km, 98.8° (Epoch: 11 November)

Event Time Altitude Azimuth Distance (km) Brightness Sun altitude
Exits shadow 19:05:58 49° 93° (E) 1,018 3.7 -21.7°
Maximum altitude 19:06:37 52° 67° (ENE) 981 3.7 -21.8°
Drops below altitude 10° 19:11:41 10° 352° (N) 2,372 6.2 -22.6°
Sets 19:14:04 0° 348° (NNW) 3,308 7.1 -23.0°
